Location: Mt. Graham
(32.7020°N, 109.8880°W)
Time: 06:27:37
(UTC-07:00)

Hubble Space Telescope - Pass Details

Date: 02 March 2024
Orbit: 513 x 517 km, 28.5° (Epoch: 24 April)

Event Time Altitude Azimuth Distance (km) Brightness Sun altitude
Rises 20:28:54 0° 264° (W) 2,625 5.4 -28.2°
Reaches altitude 10° 20:31:34 10° 247° (WSW) 1,737 4.0 -28.7°
Enters shadow 20:33:07 17° 227° (SW) 1,366 3.2 -29.1°
